CW2628 Weather Reports


time (UTC)temp
F
wind
direction
speed
knots
gust
knots
rain 1hr
in
rain 24hr
in
rain mn
in
humidity
%
barometer
mb
20260905205805 67 254 4.3 10.4 0.00 0.10 0.10 69 1020.5
20260905195805 66 257 1.7 2.6 0.00 0.10 0.10 67 1020.3
20260905195306 66 252 1.7 2.6 0.00 0.10 0.10 65 1020.2
20260905175805 67 275 0.0 0.0 0.00 0.10 0.10 66 1019.3
20260905165804 74 285 4.3 10.4 0.00 0.10 0.10 50 1018.6
20260905165306 74 272 4.3 10.4 0.00 0.10 0.10 50 1018.5
20260905155306 77 277 7.0 13.0 0.00 0.10 0.10 47 1018.2
20260905145306 77 253 6.1 12.2 0.00 0.10 0.10 48 1017.8
20260905135804 77 282 6.1 13.0 0.00 0.10 0.10 46 1017.7
20260905135306 77 275 6.1 10.4 0.00 0.10 0.10 48 1017.9
20260905125306 75 271 5.2 12.2 0.00 0.10 0.10 54 1018.1
20260905115804 72 252 4.3 10.4 0.00 0.10 0.10 65 1018.3
20260905115306 72 256 4.3 10.4 0.00 0.10 0.10 65 1018.3
20260905105306 69 270 7.8 13.0 0.00 0.10 0.10 71 1018.9
20260905095805 65 251 5.2 12.2 0.00 0.10 0.10 80 1018.9
20260905085804 61 258 1.7 8.7 0.03 0.10 0.10 88 1019.3
20260905085306 60 246 5.2 8.7 0.04 0.10 0.10 88 1019.4
20260905065804 61 262 0.0 0.9 0.02 0.02 0.02 81 1018.7
20260905065306 62 260 0.0 7.0 0.01 0.01 0.01 79 1018.6
20260905055805 66 287 3.5 14.8 0.00 0.00 0.00 67 1017.8
20260905045804 68 289 6.1 14.8 0.00 0.00 0.00 62 1016.5
20260905045306 68 282 5.2 11.3 0.00 0.00 0.00 61 1016.5
20260905025804 71 294 3.5 12.2 0.00 0.00 0.00 63 1013.2
20260905025306 71 302 4.3 12.2 0.00 0.00 0.00 63 1013.1
20260904235805 70 265 1.7 5.2 0.00 0.00 0.00 63 1011.5
20260904225306 67 205 0.0 0.0 0.00 0.00 0.00 72 1011.1
20260904215804 68 205 0.9 1.7 0.00 0.00 0.00 67 1011.1